Wind_Speed
21 20 20 20 20 19 18 18 18 19 20 19 19 19 19 19 19 19 19 19 19 19 19 19 19 18 19 19 19 19 19 19 18 19 19 19 20 20 21 21 21 21 21
21 20 21 21 21 20 19 20 20 20 20 20 20 20 20 20 20 19 19 20 19 19 19 19 20 20 20 20 20 19 19 19 19 19 20 20 20 20 20 21 21 21 21
22 22 21 21 20 21 21 21 22 22 22 22 21 21 21 20 20 19 20 20 19 20 20 20 20 20 20 20 20 20 20 20 19 20 20 20 20 20 21 21 21 21 21
21 21 21 21 21 21 22 22 23 23 22 22 21 21 21 20 20 20 20 20 20 21 21 21 20 20 20 20 20 21 21 20 20 20 20 20 20 20 21 21 21 21 22
21 21 21 22 22 22 23 23 23 23 22 22 21 21 21 20 20 20 20 20 21 22 21 21 21 21 21 21 21 21 21 21 21 21 20 20 21 21 21 21 21 21 22
22 22 23 23 23 23 23 24 23 22 23 23 22 21 21 21 21 21 21 21 22 22 21 21 22 22 22 22 22 22 21 21 21 21 20 20 20 21 20 21 21 22 22
24 24 24 24 24 24 23 24 25 24 23 23 22 22 22 21 21 21 22 22 22 22 21 21 21 22 22 23 23 22 21 21 21 20 20 20 20 20 21 21 22 22 22
24 25 25 25 24 24 24 25 25 24 24 24 23 22 22 22 22 22 22 22 22 22 21 21 21 21 21 22 22 21 21 20 21 21 20 20 20 21 21 22 22 22 22
24 24 24 24 24 24 24 24 23 24 24 23 24 23 22 22 22 23 23 22 21 21 21 21 21 20 21 20 21 21 21 21 21 21 21 20 20 20 21 21 21 21 20
24 23 24 24 24 23 23 23 23 23 23 23 23 23 22 22 22 22 22 22 22 22 21 21 21 20 19 19 19 20 21 21 21 21 21 20 20 20 20 21 21 21 21
24 24 25 25 24 24 23 22 22 21 22 22 22 22 22 22 21 22 22 22 23 22 21 21 20 20 20 20 20 20 20 21 21 21 21 21 21 20 21 21 21 21 21
25 25 25 25 25 24 23 23 22 22 22 21 21 21 21 21 21 21 22 22 22 22 22 22 21 20 21 21 20 20 21 21 21 21 21 21 21 20 20 20 20 20 20
25 25 25 25 24 23 23 23 22 22 22 21 20 20 21 21 21 21 21 21 21 21 21 21 20 20 20 20 20 20 21 21 21 21 21 21 20 20 19 18 19 19 19
25 25 25 24 23 23 23 23 22 22 22 21 21 21 21 21 20 20 20 20 20 20 20 20 20 20 20 21 21 20 21 21 21 21 21 20 20 19 18 18 19 19 19
24 24 24 24 23 22 22 22 22 22 22 22 22 21 21 21 20 20 19 20 20 20 20 20 20 21 21 22 21 21 21 21 21 21 20 20 19 19 19 19 19 19 19
23 23 23 23 23 23 23 23 23 23 23 23 22 21 21 21 20 20 20 20 21 22 21 21 21 21 21 21 21 21 21 21 21 21 21 20 19 19 19 19 19 19 20
23 23 22 22 23 23 23 24 23 23 23 23 23 22 21 21 20 20 19 19 20 20 20 20 20 21 22 22 22 21 21 21 21 21 21 21 21 21 20 21 20 20 21
23 23 22 22 22 23 23 23 23 23 23 23 22 21 21 21 21 20 20 20 21 21 21 21 21 22 22 22 22 22 22 22 22 22 21 21 22 23 22 22 22 22 22
22 22 22 21 22 22 23 23 23 23 23 22 22 22 21 21 21 21 21 21 21 21 21 21 22 22 23 22 22 23 23 23 23 23 23 23 23 23 23 23 24 24 24
21 21 21 21 21 21 22 23 23 23 22 22 22 22 22 22 22 22 22 22 22 22 22 22 22 22 22 23 23 23 24 24 24 24 24 25 25 25 25 25 25 25 25
20 20 21 21 21 21 21 21 22 22 21 21 22 22 22 23 23 23 22 22 21 21 21 22 23 23 23 23 24 24 25 25 25 26 25 26 26 26 27 27 27 27 25
20 20 20 20 21 21 21 21 21 22 22 22 22 23 23 24 24 24 24 23 23 23 23 24 24 25 25 25 25 25 25 26 26 27 27 27 28 28 28 29 29 28 27
19 19 20 20 20 21 21 21 22 22 22 23 23 24 24 25 25 26 26 25 25 25 25 25 25 25 25 26 25 25 25 26 27 27 28 28 28 28 29 29 28 28 28
18 19 19 20 21 21 22 22 22 22 22 23 23 23 24 25 25 26 27 27 27 27 26 26 26 26 27 27 27 27 27 27 27 28 28 28 28 28 28 28 28 28 27
19 19 20 21 22 22 23 23 23 23 23 23 23 24 25 25 25 26 27 28 28 29 28 28 28 28 28 29 29 29 29 28 28 28 28 28 28 28 27 27 28 28 28
19 19 20 19 20 21 23 24 24 24 24 24 24 24 24 25 26 27 28 29 29 30 30 30 29 29 30 30 30 30 30 29 29 29 29 29 28 28 28 28 28 28 27
Wind_Direction
265 265 265 267 269 267 268 270 271 270 270 272 274 275 275 275 275 274 271 271 272 272 273 271 270 273 276 276 278 279 280 281 281 280 282 281 280 280 280 275 273 270 270
266 264 264 267 269 267 268 269 269 267 267 269 270 270 271 271 272 272 271 271 272 273 274 272 271 275 276 279 277 278 280 281 282 283 283 281 280 281 280 278 274 272 270
265 262 264 268 269 269 270 270 268 268 268 268 267 266 268 269 270 271 271 271 271 272 272 273 273 276 277 278 278 279 280 281 282 283 283 282 281 281 279 279 276 273 271
265 264 266 268 270 270 271 272 271 268 267 266 266 265 266 267 270 271 270 271 271 272 272 273 275 274 275 276 277 279 279 280 282 283 283 281 281 281 281 280 278 278 275
265 268 269 269 271 271 271 271 271 268 266 266 266 264 264 267 269 269 270 269 271 273 273 273 273 273 273 274 275 278 278 279 281 282 283 281 280 280 282 281 281 280 278
268 269 270 270 271 272 272 269 269 267 264 264 263 264 264 266 268 268 269 270 271 271 271 273 272 273 272 272 274 275 277 279 280 282 282 281 280 280 282 283 282 281 279
270 271 271 272 273 272 271 269 267 267 264 262 263 265 266 267 266 267 267 268 269 269 270 273 274 272 272 272 271 273 277 279 281 282 281 280 279 279 280 281 283 283 281
271 270 271 271 272 271 272 270 268 266 266 264 263 265 266 265 266 266 266 267 270 270 271 273 274 275 275 272 271 272 275 279 282 283 282 281 279 279 280 280 282 282 279
271 270 270 271 273 274 273 270 267 265 266 267 263 264 264 264 265 265 264 265 267 269 271 271 273 275 274 273 271 272 274 278 281 282 283 281 281 280 280 281 283 283 282
268 269 269 270 274 275 274 271 267 265 264 264 264 262 260 262 264 265 265 266 268 269 271 271 271 272 272 273 274 273 273 276 278 281 282 280 280 280 280 280 282 282 281
267 269 268 270 271 273 273 271 268 267 266 264 264 263 261 262 264 266 266 267 269 270 270 270 270 270 270 271 274 275 277 277 276 279 279 279 279 280 279 280 281 281 281
266 268 268 270 269 271 271 271 271 268 267 265 262 262 263 262 262 264 266 267 268 268 268 267 268 269 270 271 272 274 276 277 278 280 280 279 279 279 280 280 281 282 283
266 268 269 269 269 269 269 270 268 269 268 262 261 260 262 264 264 264 265 266 266 266 266 266 264 265 268 271 272 273 275 276 277 279 281 282 282 282 281 282 283 284 285
265 266 266 268 269 268 267 266 265 267 268 263 261 262 263 264 265 264 263 264 265 265 265 266 265 265 267 269 272 273 275 276 275 277 279 281 280 279 280 282 284 284 284
263 263 265 266 266 266 265 265 265 263 263 263 262 264 264 264 264 264 265 265 264 265 265 265 265 266 267 268 270 272 273 274 274 276 277 275 275 277 277 281 285 287 285
263 263 264 264 264 264 264 264 262 260 261 261 262 263 264 264 264 265 268 270 268 266 266 265 265 265 265 267 269 270 272 273 274 275 273 272 273 275 276 279 282 286 288
264 263 263 264 263 264 263 262 262 260 259 259 260 261 262 263 263 265 268 268 269 269 267 266 266 266 265 266 267 269 271 272 274 275 275 274 274 276 278 281 283 286 288
265 265 264 263 262 261 260 260 260 260 259 258 258 259 261 263 264 265 266 268 269 270 270 268 268 268 268 267 266 266 268 270 271 272 274 275 276 276 277 279 281 283 286
265 265 263 263 262 260 261 261 260 259 259 258 259 261 263 264 263 263 264 266 266 267 269 268 268 267 267 267 267 267 268 269 272 273 272 274 277 278 278 279 281 282 284
264 262 261 261 261 261 261 259 258 257 255 255 258 261 262 262 263 263 263 263 265 267 268 269 269 270 270 267 267 268 270 271 272 274 274 274 275 276 278 279 282 284 284
261 261 261 261 260 260 260 259 258 256 257 257 259 261 261 261 263 264 264 264 266 268 269 269 269 269 271 271 270 270 270 271 273 274 275 274 274 275 276 278 280 281 281
260 261 262 262 260 260 259 260 261 259 259 261 262 262 261 263 264 264 265 266 269 270 269 269 270 269 269 270 271 271 271 272 273 274 275 275 275 275 276 277 278 279 280
261 261 262 261 260 260 260 260 261 261 261 261 263 263 263 263 263 264 265 266 268 268 268 270 272 273 272 271 272 272 272 273 274 275 277 276 277 276 275 275 275 277 277
262 263 263 263 263 262 262 262 261 262 262 262 263 262 262 262 263 264 265 266 267 269 269 269 270 272 272 271 272 273 273 274 274 275 276 276 276 276 274 274 275 275 275
262 263 266 265 263 263 262 261 261 261 262 263 263 262 262 263 266 267 268 268 269 270 270 270 270 270 270 270 271 272 272 273 274 274 275 275 276 276 275 274 274 274 274
267 266 266 268 266 265 263 262 263 264 264 264 265 265 267 268 269 270 271 270 270 270 270 270 271 272 271 270 270 271 271 271 271 272 274 275 275 275 275 274 273 273 273
Height
5812 5812 5812 5812 5812 5812 5812 5812 5812 5812 5812 5812 5812 5811 5811 5810 5810 5809 5809 5809 5808 5808 5807 5807 5806 5806 5804 5804 5803 5802 5801 5801 5800 5798 5797 5795 5794 5793 5792 5791 5791 5791 5790
5806 5806 5806 5806 5806 5806 5806 5807 5807 5807 5807 5806 5806 5806 5805 5805 5804 5804 5803 5803 5802 5802 5801 5801 5800 5800 5799 5798 5797 5796 5796 5795 5794 5793 5791 5790 5789 5787 5786 5785 5784 5784 5784
5800 5800 5800 5800 5800 5800 5800 5800 5800 5800 5800 5800 5800 5800 5800 5799 5798 5798 5797 5797 5796 5796 5795 5795 5794 5793 5792 5792 5791 5791 5790 5789 5788 5787 5786 5784 5783 5781 5780 5779 5778 5778 5778
5794 5793 5794 5794 5794 5794 5794 5794 5793 5793 5793 5793 5793 5793 5794 5793 5792 5792 5791 5791 5790 5789 5789 5788 5788 5787 5787 5786 5785 5785 5784 5783 5782 5781 5780 5778 5777 5775 5774 5773 5772 5772 5771
5787 5787 5788 5788 5788 5788 5787 5787 5787 5787 5787 5787 5787 5787 5787 5787 5786 5786 5785 5785 5784 5784 5783 5782 5781 5781 5780 5780 5779 5779 5778 5777 5776 5775 5773 5772 5771 5770 5769 5768 5767 5766 5765
5781 5781 5781 5781 5781 5780 5780 5780 5779 5779 5780 5779 5779 5779 5780 5780 5780 5779 5778 5778 5778 5777 5777 5776 5775 5774 5774 5773 5773 5772 5772 5771 5770 5769 5767 5766 5765 5764 5763 5762 5761 5760 5759
5774 5774 5774 5774 5773 5773 5773 5772 5772 5772 5772 5772 5773 5773 5773 5773 5773 5772 5772 5771 5771 5771 5770 5769 5768 5768 5767 5767 5766 5766 5765 5764 5764 5763 5762 5761 5759 5758 5758 5757 5755 5754 5753
5767 5767 5767 5766 5766 5766 5765 5765 5764 5765 5765 5765 5765 5766 5766 5766 5766 5765 5765 5764 5764 5764 5763 5763 5762 5761 5760 5760 5760 5759 5758 5758 5757 5757 5756 5755 5753 5752 5751 5750 5749 5748 5747
5760 5760 5760 5759 5759 5758 5758 5758 5757 5758 5758 5758 5758 5758 5758 5758 5758 5758 5758 5757 5757 5757 5757 5756 5755 5755 5754 5753 5753 5752 5752 5751 5751 5750 5749 5748 5747 5746 5745 5744 5743 5742 5740
5753 5753 5753 5752 5752 5751 5751 5750 5750 5750 5750 5751 5751 5751 5751 5751 5751 5750 5750 5750 5750 5750 5750 5749 5749 5748 5748 5747 5747 5747 5746 5745 5745 5744 5743 5742 5741 5740 5738 5737 5736 5736 5734
5746 5746 5746 5745 5745 5744 5744 5743 5743 5743 5743 5744 5744 5744 5744 5744 5744 5743 5743 5743 5743 5743 5743 5742 5742 5742 5741 5741 5741 5740 5740 5739 5739 5738 5737 5736 5735 5734 5732 5731 5730 5729 5728
5738 5738 5738 5737 5737 5737 5737 5736 5736 5736 5736 5737 5737 5737 5736 5736 5736 5736 5736 5736 5736 5736 5736 5736 5736 5736 5735 5735 5735 5734 5734 5733 5732 5732 5731 5730 5729 5728 5727 5725 5724 5723 5722
5730 5730 5730 5730 5730 5730 5730 5730 5730 5730 5729 5730 5730 5730 5730 5729 5729 5729 5729 5729 5730 5730 5730 5730 5729 5729 5729 5729 5728 5728 5727 5727 5726 5725 5724 5723 5722 5722 5721 5720 5719 5718 5717
5722 5722 5722 5722 5722 5722 5722 5723 5723 5723 5723 5723 5724 5723 5723 5723 5723 5723 5723 5723 5723 5723 5723 5723 5723 5723 5723 5722 5722 5722 5721 5720 5720 5719 5718 5717 5716 5716 5715 5714 5714 5712 5711
5714 5714 5715 5715 5715 5715 5715 5715 5716 5716 5717 5717 5717 5717 5717 5717 5717 5717 5717 5717 5717 5717 5717 5717 5716 5716 5716 5716 5716 5715 5715 5714 5714 5713 5712 5712 5711 5710 5710 5709 5708 5707 5706
5706 5707 5707 5707 5707 5708 5708 5709 5709 5709 5710 5710 5710 5710 5710 5710 5710 5711 5711 5711 5711 5711 5710 5710 5710 5710 5710 5709 5709 5709 5708 5708 5707 5707 5706 5705 5705 5704 5704 5703 5702 5701 5700
5699 5699 5699 5699 5700 5700 5701 5701 5702 5703 5703 5703 5704 5704 5704 5704 5704 5704 5704 5705 5704 5704 5704 5704 5703 5703 5703 5703 5702 5702 5702 5702 5701 5701 5700 5699 5699 5698 5698 5697 5696 5695 5693
5691 5691 5691 5692 5692 5693 5693 5694 5695 5696 5696 5696 5697 5697 5697 5697 5698 5698 5698 5698 5698 5698 5698 5697 5697 5697 5696 5696 5695 5695 5695 5695 5694 5694 5693 5693 5692 5692 5691 5690 5689 5688 5687
5684 5684 5684 5685 5685 5686 5686 5687 5688 5688 5689 5689 5690 5690 5690 5690 5691 5691 5691 5691 5691 5691 5691 5691 5690 5690 5689 5689 5689 5688 5688 5688 5688 5687 5687 5686 5686 5685 5684 5683 5682 5681 5680
5676 5677 5677 5678 5678 5679 5679 5680 5680 5681 5682 5682 5683 5683 5683 5683 5684 5684 5684 5684 5684 5684 5684 5684 5683 5683 5683 5682 5682 5681 5681 5681 5680 5680 5679 5679 5678 5677 5677 5676 5675 5674 5672
5670 5670 5671 5671 5671 5672 5672 5673 5673 5674 5675 5675 5676 5676 5676 5676 5677 5677 5677 5677 5677 5677 5676 5676 5676 5675 5675 5674 5674 5674 5674 5673 5672 5672 5671 5671 5670 5669 5669 5668 5667 5666 5664
5663 5664 5664 5664 5665 5665 5666 5666 5666 5667 5667 5668 5668 5668 5668 5669 5669 5669 5669 5669 5669 5669 5669 5668 5668 5668 5667 5667 5666 5666 5666 5665 5665 5664 5663 5662 5661 5661 5660 5659 5658 5657 5656
5657 5657 5658 5658 5658 5659 5659 5659 5659 5659 5660 5660 5660 5660 5660 5661 5661 5661 5661 5661 5661 5661 5661 5660 5660 5659 5659 5658 5658 5658 5657 5657 5656 5655 5654 5653 5652 5651 5651 5650 5649 5648 5647
5651 5651 5652 5652 5652 5652 5652 5652 5652 5653 5652 5652 5652 5652 5652 5652 5653 5653 5653 5653 5652 5652 5652 5651 5651 5651 5650 5650 5649 5649 5648 5648 5647 5646 5645 5644 5643 5642 5641 5640 5640 5639 5638
5645 5645 5645 5644 5644 5644 5645 5645 5645 5645 5645 5645 5645 5645 5644 5644 5644 5644 5644 5644 5643 5643 5643 5642 5642 5641 5641 5640 5640 5640 5639 5639 5638 5637 5636 5635 5634 5633 5632 5631 5630 5630 5629
5638 5638 5638 5637 5637 5637 5637 5637 5637 5637 5637 5637 5637 5636 5636 5636 5635 5635 5634 5634 5634 5634 5633 5632 5632 5632 5631 5631 5630 5630 5629 5629 5628 5627 5627 5626 5625 5624 5623 5622 5621 5620 5619